Texarkana, AR

7:22 AM CST on February 14, 2016 (GMT -0600)
Texarkana Regional-Webb

Weather History for KTXK - August, 2012

Change the Weather History Date:

Wednesday, August 8, 2012

  Actual Average Record
Temperature  
Mean Temperature 84 °F 83 °F  
Max Temperature 94 °F 94 °F 110 °F (1936)
Min Temperature 73 °F 72 °F 58 °F (1990)
Degree Days  
Heating Degree Days 0 0  
Month to date heating degree days 0 0  
Since 1 June heating degree days 0 0  
Since 1 July heating degree days 0 0  
Cooling Degree Days 19 18  
Month to date cooling degree days 178 144  
Year to date cooling degree days 1921 1404  
Since 1 June cooling degree days 1338 1084  
Growing Degree Days 36 (Base 50)    
Moisture  
Dew Point 70 °F    
Average Humidity 63    
Maximum Humidity 79    
Minimum Humidity 46    
Precipitation  
Precipitation 0.01 in 0.09 in 1.84 in (1942)
Month to date precipitation 0.83 0.76  
Year to date precipitation 21.12 29.27  
Snow  
Snow 0.00 in - - ()
Month to date snowfall 0.0  
Since 1 June snowfall 0.0  
Since 1 July snowfall 0.0  
Snow Depth 0.00 in    
Sea Level Pressure  
Sea Level Pressure 29.95 in    
Wind  
Wind Speed 8 mph (SSW)    
Max Wind Speed 21 mph    
Max Gust Speed 26 mph    
Visibility 10 miles    
Events Rain , Thunderstorm    
T = Trace of Precipitation, MM = Missing Value Source: NWS Daily Summary

Daily Weather History Graph

Daily Weather History Graph

Search for Another Location

Airport or City:

Trip Planner

Search our weather history database for the weather conditions in past years. The results will help you decide how hot, cold, wet, or windy it might be!

Date:

Astronomy

Aug. 08, 2012 Rise Set
Actual Time 6:33 AM CDT 8:08 PM CDT
Civil Twilight 6:07 AM CDT 8:35 PM CDT
Nautical Twilight 5:35 AM CDT 9:07 PM CDT
Astronomical Twilight 5:01 AM CDT 9:40 PM CDT
Moon 11:48 PM CDT (8/8) 12:55 PM CDT (8/8)
Length of Visible Light 14h 28m
Length of Day
13h 34m
Waning Gibbous, 60% of the Moon is Illuminated
Aug 8
Waning Gibbous
Aug 9
Last Quarter
Aug 17
New
Aug 24
First Quarter
Aug 31
Full

Hourly Weather History & Observations

Time (CDT) Temp. Heat Index Dew Point Humidity Pressure Visibility Wind Dir Wind Speed Gust Speed Precip Events Conditions
12:53 AM 82.9 °F 88.0 °F 72.0 °F 69% 29.92 in 10.0 mi South 5.8 mph - N/A   Clear
1:53 AM 82.0 °F 86.3 °F 71.1 °F 69% 29.92 in 10.0 mi South 9.2 mph - N/A   Partly Cloudy
2:53 AM 80.1 °F 83.8 °F 72.0 °F 76% 29.92 in 10.0 mi SSW 4.6 mph - N/A   Partly Cloudy
3:53 AM 80.1 °F 83.8 °F 72.0 °F 76% 29.92 in 10.0 mi South 3.5 mph - N/A   Partly Cloudy
4:53 AM 79.0 °F - 72.0 °F 79% 29.94 in 10.0 mi Calm Calm - N/A   Mostly Cloudy
5:37 AM 78.8 °F - 73.4 °F 83% 29.96 in 9.0 mi South 4.6 mph - N/A Thunderstorm Mostly Cloudy
5:53 AM 79.0 °F - 72.0 °F 79% 29.94 in 10.0 mi South 4.6 mph - N/A Thunderstorm Mostly Cloudy
6:14 AM 78.8 °F - 71.6 °F 78% 29.97 in 9.0 mi SSW 5.8 mph - N/A   Overcast
6:28 AM 78.8 °F - 73.4 °F 83% 29.97 in 9.0 mi SSW 5.8 mph - N/A Thunderstorm Overcast
6:43 AM 78.8 °F - 73.4 °F 83% 29.97 in 8.0 mi SSW 6.9 mph - N/A   Mostly Cloudy
6:53 AM 79.0 °F - 73.0 °F 82% 29.96 in 8.0 mi SSW 8.1 mph - N/A   Mostly Cloudy
7:53 AM 80.1 °F 83.8 °F 72.0 °F 76% 29.97 in 10.0 mi SSW 8.1 mph - N/A   Partly Cloudy
8:21 AM 78.8 °F - 69.8 °F 74% 30.00 in 10.0 mi SW 10.4 mph - N/A Thunderstorm Partly Cloudy
8:53 AM 80.1 °F 82.9 °F 69.1 °F 69% 29.99 in 10.0 mi WSW 10.4 mph - N/A Thunderstorm Partly Cloudy
9:01 AM 80.6 °F 83.9 °F 69.8 °F 70% 30.00 in 10.0 mi West 10.4 mph - N/A   Clear
9:53 AM 84.0 °F 89.6 °F 72.0 °F 67% 29.99 in 10.0 mi SW 5.8 mph - N/A   Scattered Clouds
10:53 AM 89.1 °F 94.1 °F 70.0 °F 53% 29.99 in 10.0 mi WSW 8.1 mph - N/A   Clear
11:53 AM 90.0 °F 96.4 °F 71.1 °F 54% 29.97 in 10.0 mi Calm Calm - N/A   Clear
12:53 PM 91.9 °F 96.9 °F 69.1 °F 47% 29.96 in 10.0 mi South 8.1 mph - N/A   Clear
1:53 PM 93.9 °F 100.3 °F 70.0 °F 46% 29.93 in 10.0 mi South 8.1 mph - N/A   Clear
2:53 PM 93.0 °F 99.0 °F 70.0 °F 47% 29.90 in 10.0 mi South 11.5 mph - N/A   Clear
3:53 PM 93.0 °F 97.9 °F 69.1 °F 45% 29.89 in 10.0 mi South 6.9 mph - N/A   Clear
4:53 PM 93.9 °F 99.1 °F 69.1 °F 44% 29.88 in 10.0 mi WSW 6.9 mph - N/A   Clear
6:53 PM 82.9 °F 85.4 °F 66.9 °F 58% 29.91 in 10.0 mi NE 15.0 mph 18.4 mph N/A   Clear
7:53 PM 80.1 °F 82.3 °F 66.9 °F 64% 29.92 in 10.0 mi NE 6.9 mph - N/A   Clear
8:53 PM 79.0 °F - 66.9 °F 66% 29.93 in 10.0 mi East 3.5 mph - N/A   Clear
9:53 PM 78.1 °F - 69.1 °F 74% 29.94 in 10.0 mi North 8.1 mph - N/A   Partly Cloudy
10:53 PM 80.1 °F 82.3 °F 66.9 °F 64% 29.96 in 10.0 mi WNW 11.5 mph 24.2 mph N/A   Partly Cloudy
11:53 PM 75.0 °F - 69.1 °F 82% 29.96 in 10.0 mi West 9.2 mph - 0.01 in Rain Light Rain